Printer-friendly version

IAU Minor Planet Center

Minor Planet Center

MPEC 2004-F20 : 2004 FE

The following Minor Planet Electronic Circular may be linked-to from your own Web pages, but must not otherwise be redistributed electronically.


Read MPEC 2004-F19 Read MPEC 2004-F21


M.P.E.C. 2004-F20                                Issued 2004 Mar. 17, 13:51 UT

     The Minor Planet Electronic Circulars contain information on unusual
         minor planets and routine data on comets.  They are published
   on behalf of Commission 20 of the International Astronomical Union by the
          Minor Planet Center, Smithsonian Astrophysical Observatory,
                          Cambridge, MA 02138, U.S.A.

         Supported in part by the Steven and Michele Kirsch Foundation
             Prepared using the Tamkin Foundation Computer Network

                              MPC@CFA.HARVARD.EDU
          URL http://cfa-www.harvard.edu/iau/mpc.html  ISSN 1523-6714

                                    2004 FE

Observations:
     K04F00E* C2004 03 16.22119 09 28 29.79 -01 01 23.3          19.8   EF020704
     K04F00E  C2004 03 16.23218 09 28 29.17 -01 02 07.8          19.8   EF020704
     K04F00E  C2004 03 16.24311 09 28 28.77 -01 02 53.3          19.8   EF020704
     K04F00E  C2004 03 16.25805 09 28 28.05 -01 03 53.7          19.3   EF020704
     K04F00E  C2004 03 16.98631 09 28 04.70 -01 53 55.0                 EF020246
     K04F00E  C2004 03 16.98957 09 28 04.63 -01 54 09.2                 EF020246
     K04F00E  C2004 03 16.99023 09 28 04.58 -01 54 12.0                 EF020246
     K04F00E  C2004 03 17.20578 09 27 58.87 -02 08 57.3          20.0 R EF020649
     K04F00E  C2004 03 17.21110 09 27 58.68 -02 09 19.3          20.2 R EF020649
     K04F00E  C2004 03 17.21288 09 27 58.58 -02 09 26.5          20.3 R EF020649
     K04F00E  C2004 03 17.21465 09 27 58.54 -02 09 34.0          19.9 R EF020649
     K04F00E  C2004 03 17.24321 09 27 57.85 -02 11 27.4          19.2 R EF020651
     K04F00E 5C2004 03 17.24468 09 27 58.09 -02 11 36.5          19.8 R EF020673
     K04F00E  C2004 03 17.24575 09 27 57.76 -02 11 38.4          19.7 R EF020651
     K04F00E 5C2004 03 17.24850 09 27 57.93 -02 11 50.7                 EF020673
     K04F00E  C2004 03 17.24887 09 27 57.60 -02 11 50.8          19.6 R EF020651
     K04F00E 5C2004 03 17.25382 09 27 57.74 -02 12 11.1                 EF020673
     K04F00E 5C2004 03 17.25752 09 27 57.58 -02 12 26.7                 EF020673
     K04F00E  C2004 03 17.25901 09 27 57.04 -02 12 33.9          20.2 R EF020448
     K04F00E  C2004 03 17.26763 09 27 56.66 -02 13 08.9          19.9 R EF020448
     K04F00E  C2004 03 17.27884 09 27 56.21 -02 13 55.2          19.9 R EF020448

Observer details:
246 Klet Observatory-KLENOT.  Observer M. Tichy.  1.06-m KLENOT Telescope
    + CCD.
448 Desert Moon Observatory.  Observer B. L. Stevens.  0.3-m
    Schmidt-Cassegrain + CCD.
649 Powell Observatory, Louisburg.  Observer R. Fredrick.  0.75-m Newtonian
    + CCD.
651 Grasslands Observatory, Tucson.  Observer J. E. McGaha.  0.62-m f/5.1
    Newtonian + CCD.
673 Table Mountain Observatory, Wrightwood.  Observer J. Young.  0.6-m
    reflector + CCD.
704 Lincoln Laboratory ETS, New Mexico.  Observers M. Blythe, F. Shelly,
    M. Bezpalko, R. Huber, L. Manguso, D. Torres, R. Kracke, M. McCleary,
    H. Stange, A. Milner.  Measurers J. Stuart, R. Sayer, J. Evans, J. Kommers.
    1.0-m f/2.15 reflector + CCD.

Orbital elements:
2004 FE
Epoch 2004 Mar. 16.0 TT = JDT 2453080.5                 MPC
M 355.07268              (2000.0)            P               Q
n   0.21295338     Peri.  215.54441     -0.96874675     +0.23331705
a   2.7772375      Node   337.49866     -0.14409310     -0.80567923
e   0.5826473      Incl.   12.71275     -0.20190818     -0.54446684
P   4.63           H   21.8           G   0.15
From 21 observations 2004 Mar. 16-17.

Ephemeris:
2004 FE                  a,e,i = 2.78, 0.58, 13                  q = 1.1591
Date    TT    R. A. (2000) Decl.     Delta      r     Elong.  Phase     V
2004 03 16    09 28.62   -00 45.9    0.230    1.193   146.0    27.8    20.2
2004 03 26    09 26.54   -12 21.1    0.226    1.170   135.7    36.5    20.4
2004 04 05    09 32.67   -23 23.0    0.235    1.160   128.0    42.8    20.6
2004 04 15    09 47.75   -32 47.2    0.254    1.162   123.3    46.2    20.9
2004 04 25    10 12.15   -40 07.0    0.280    1.177   121.5    46.8    21.2
2004 05 05    10 45.48   -45 20.8    0.314    1.204   121.8    45.4    21.4
2004 05 15    11 25.80   -48 33.0    0.354    1.242   123.3    42.9    21.7
2004 05 25    12 09.94   -49 54.8    0.403    1.288   125.3    39.9    22.0

Timothy B. Spahr             (C) Copyright 2004 MPC           M.P.E.C. 2004-F20

Read MPEC 2004-F19 Read MPEC 2004-F21


Our Web policy. Index to the CBAT/MPC/ICQ pages.


Valid HTML 4.01!